TimeCST,TemperatureF,Dew PointF,Humidity,Sea Level PressureIn,VisibilityMPH,Wind Direction,Wind SpeedMPH,Gust SpeedMPH,PrecipitationIn,Events,Conditions,WindDirDegrees,DateUTC
12:52 AM,33.1,28.9,85,30.10,10.0,Calm,Calm,-,N/A,,Overcast,0,2012-11-07 06:52:00
1:52 AM,26.1,24.1,92,30.11,10.0,Calm,Calm,-,N/A,,Clear,0,2012-11-07 07:52:00
2:52 AM,26.1,24.1,92,30.10,10.0,Calm,Calm,-,N/A,,Clear,0,2012-11-07 08:52:00
3:52 AM,28.9,25.0,85,30.09,10.0,Calm,Calm,-,N/A,,Clear,0,2012-11-07 09:52:00
4:52 AM,28.9,27.0,92,30.07,10.0,ESE,6.9,-,N/A,,Clear,110,2012-11-07 10:52:00
5:52 AM,28.9,27.0,92,30.08,10.0,ESE,8.1,-,N/A,,Clear,120,2012-11-07 11:52:00
6:52 AM,28.9,28.0,96,30.06,10.0,ESE,8.1,-,N/A,,Clear,120,2012-11-07 12:52:00
7:52 AM,32.0,28.0,85,30.05,10.0,ESE,10.4,-,N/A,,Partly Cloudy,120,2012-11-07 13:52:00
8:52 AM,35.1,30.9,85,30.03,10.0,SE,9.2,-,N/A,,Clear,140,2012-11-07 14:52:00
9:52 AM,39.9,33.1,77,30.01,10.0,SE,12.7,-,N/A,,Clear,140,2012-11-07 15:52:00
10:52 AM,45.0,32.0,60,29.97,10.0,South,18.4,-,N/A,,Clear,170,2012-11-07 16:52:00
11:52 AM,48.9,28.9,46,29.91,10.0,SSE,20.7,28.8,N/A,,Clear,160,2012-11-07 17:52:00
12:52 PM,53.1,28.9,40,29.85,10.0,SSE,19.6,-,N/A,,Clear,160,2012-11-07 18:52:00
1:52 PM,57.9,27.0,31,29.81,10.0,SSE,21.9,27.6,N/A,,Clear,160,2012-11-07 19:52:00
2:00 PM,-9999,-9999,N/A,-9999,-9999.0,North,-9999.0,-,N/A,,Unknown,0,2012-11-07 20:00:00
2:52 PM,57.9,30.0,35,29.79,10.0,SSE,15.0,-,N/A,,Clear,160,2012-11-07 20:52:00
3:52 PM,59.0,30.0,33,29.77,10.0,SSE,16.1,-,N/A,,Clear,160,2012-11-07 21:52:00
4:52 PM,57.0,30.0,36,29.77,10.0,SSE,13.8,-,N/A,,Clear,160,2012-11-07 22:52:00
5:52 PM,52.0,30.9,45,29.76,10.0,SE,13.8,-,N/A,,Clear,140,2012-11-07 23:52:00
6:52 PM,48.9,30.9,50,29.76,10.0,SE,10.4,-,N/A,,Clear,140,2012-11-08 00:52:00
7:52 PM,46.0,32.0,58,29.75,10.0,SE,9.2,-,N/A,,Clear,140,2012-11-08 01:52:00
8:52 PM,43.0,30.9,62,29.73,10.0,SSE,9.2,-,N/A,,Clear,150,2012-11-08 02:52:00
9:52 PM,42.1,30.0,62,29.73,10.0,SSE,8.1,-,N/A,,Clear,160,2012-11-08 03:52:00
10:52 PM,41.0,30.9,67,29.70,10.0,SE,9.2,-,N/A,,Clear,140,2012-11-08 04:52:00
11:52 PM,42.1,30.9,65,29.70,10.0,SE,6.9,-,N/A,,Clear,140,2012-11-08 05:52:00